DW8501 Madrid ES current weather conditions

sailwx.info

Wind from 301 at 25 knots gusting 39

Air temperature 9.4° C
Dewpoint 7.4° C

Last reported at 2016-Feb-10 09:45 UTC.
Time now 2016-Feb-10 10:53 UTC

Location: N 40°27' W 003°35'.
View on Google Maps.

See reports from other nearby stations

  
Tides and Currents Weather Stations Pressure Air Temp Water Temp Dewpoint Dewpoint Depression Visibility Wind Speed Wind Dir Waves Ship Positions
date/time (UTC)wind fromknots sea level pressurealtimeterstation pressurevisibilityair tempwater tempwave heightnotes
2016-Feb-10 09:45 301 25 gusting 39 9.4
2016-Feb-10 09:40 293 22 gusting 37 9.4
2016-Feb-10 09:35 293 23 gusting 37 9.4
2016-Feb-10 09:30 298 23 gusting 33 9.4
2016-Feb-10 09:25 281 23 gusting 35 9.4
2016-Feb-10 09:20 290 23 gusting 35 9.4
2016-Feb-10 09:15 283 17 gusting 30 9.4
2016-Feb-10 09:10 270 14 gusting 30 9.4
2016-Feb-10 09:05 280 18 gusting 31 9.4
2016-Feb-10 09:00 288 19 gusting 33 9.4
2016-Feb-10 08:55 289 26 gusting 33 8.9
2016-Feb-10 08:50 286 20 gusting 33 8.9
2016-Feb-10 08:45 303 13 gusting 33 8.9
2016-Feb-10 08:40 302 18 gusting 30 8.9
2016-Feb-10 08:35 295 19 gusting 32 8.9
2016-Feb-10 08:30 290 23 gusting 32 8.9
2016-Feb-10 08:25 300 18 gusting 28 8.9
2016-Feb-10 08:20 313 15 gusting 26 8.9
2016-Feb-10 08:15 290 19 gusting 25 8.9
2016-Feb-10 08:10 288 11 gusting 33 8.9
2016-Feb-10 08:05 309 14 gusting 33 8.9
2016-Feb-10 08:00 291 19 gusting 26 8.3
2016-Feb-10 07:55 276 16 gusting 22 8.3
2016-Feb-10 07:50 274 10 gusting 21 8.3
2016-Feb-10 07:45 264 13 gusting 21 8.3
2016-Feb-10 07:40 272 14 gusting 23 8.3
2016-Feb-10 07:35 264 13 gusting 23 8.3
2016-Feb-10 07:30 261 18 gusting 25 8.3
2016-Feb-10 07:25 280 13 gusting 25 8.3
2016-Feb-10 07:20 271 20 gusting 25 8.3
2016-Feb-10 07:15 266 13 gusting 23 8.3
2016-Feb-10 07:10 298 11 gusting 23 8.3
2016-Feb-10 07:05 322 12 gusting 20 8.3
2016-Feb-10 07:00 292 17 gusting 19 8.3
2016-Feb-10 06:55 263 13 gusting 23 8.3
2016-Feb-10 06:50 260 14 gusting 23 8.3
2016-Feb-10 06:45 244 18 gusting 23 8.3
2016-Feb-10 06:40 266 10 gusting 14 8.3
2016-Feb-10 06:35 291 12 gusting 16 8.3
2016-Feb-10 06:30 271 8 gusting 16 8.3
2016-Feb-10 06:25 246 9 gusting 13 8.3
2016-Feb-10 06:20 223 6 gusting 10 8.3
2016-Feb-10 06:15 224 6 gusting 11 8.3
2016-Feb-10 06:10 227 7 gusting 11 8.3
2016-Feb-10 06:05 216 6 gusting 8 8.3
2016-Feb-10 06:00 196 3 gusting 6 8.3
2016-Feb-10 05:55 184 2 gusting 6 8.3
2016-Feb-10 05:45 235 3 gusting 9 8.3
2016-Feb-10 05:40 243 6 gusting 9 8.3
2016-Feb-10 05:35 233 6 gusting 9 8.3
2016-Feb-10 05:30 236 7 gusting 13 8.3
2016-Feb-10 05:25 237 6 gusting 13 8.3
2016-Feb-10 05:20 235 9 gusting 13 8.9
2016-Feb-10 05:15 229 8 gusting 13 8.9
2016-Feb-10 05:10 232 7 gusting 12 8.9
2016-Feb-10 05:05 235 7 gusting 11 8.9
2016-Feb-10 05:00 232 7 gusting 10 8.9
2016-Feb-10 04:55 242 6 gusting 9 8.9
2016-Feb-10 04:50 258 7 gusting 15 8.9
2016-Feb-10 04:45 262 6 gusting 15 9.4
2016-Feb-10 04:40 248 9 gusting 15 8.9
2016-Feb-10 04:35 237 6 gusting 13 8.9
2016-Feb-10 04:30 229 5 gusting 13 8.9
2016-Feb-10 04:25 247 4 gusting 13 8.9
2016-Feb-10 04:20 248 5 gusting 13 9.4
2016-Feb-10 04:15 264 7 gusting 15 9.4
2016-Feb-10 04:10 276 6 gusting 15 9.4
2016-Feb-10 04:05 268 6 gusting 13 9.4
2016-Feb-10 04:00 259 8 gusting 16 9.4
2016-Feb-10 03:55 258 8 gusting 18 9.4
2016-Feb-10 03:50 279 11 gusting 19 9.4
2016-Feb-10 03:45 280 10 gusting 19 10.0
2016-Feb-10 03:40 270 13 gusting 23 10.0
2016-Feb-10 03:35 291 11 gusting 23 10.6
2016-Feb-10 03:30 294 12 gusting 23 10.6
2016-Feb-10 03:25 294 11 gusting 20 10.0
2016-Feb-10 03:20 307 8 gusting 20 10.0
2016-Feb-10 03:15 300 9 gusting 20 10.0
2016-Feb-10 03:10 303 9 gusting 17 10.0
2016-Feb-10 03:05 296 7 gusting 13 10.0
2016-Feb-10 03:00 264 7 gusting 13 10.0
2016-Feb-10 02:55 257 8 gusting 13 10.0
2016-Feb-10 02:50 267 7 gusting 10 10.0
2016-Feb-10 02:45 252 6 gusting 9 10.0
2016-Feb-10 02:40 262 7 gusting 13 10.0
2016-Feb-10 02:35 288 6 gusting 18 10.0
2016-Feb-10 02:30 274 8 gusting 18 10.0
2016-Feb-10 02:25 256 13 gusting 18 10.0
2016-Feb-10 02:20 282 6 gusting 20 10.0
2016-Feb-10 02:15 296 9 gusting 21 10.6
2016-Feb-10 02:10 296 11 gusting 21 10.6
2016-Feb-10 02:05 313 14 gusting 19 10.6
2016-Feb-10 02:00 313 12 gusting 19 10.6
2016-Feb-10 01:55 307 9 gusting 23 10.6
2016-Feb-10 01:50 304 10 gusting 23 10.6
2016-Feb-10 01:45 297 4 gusting 19 10.6
2016-Feb-10 01:40 291 9 gusting 21 10.6
2016-Feb-10 01:35 298 6 gusting 23 10.6
2016-Feb-10 01:30 296 13 gusting 23 10.6
2016-Feb-10 01:25 282 13 gusting 19 10.6
2016-Feb-10 01:20 272 13 gusting 19 10.6
2016-Feb-10 01:15 267 6 gusting 13 10.6
2016-Feb-10 01:10 298 9 gusting 13 10.6
2016-Feb-10 01:05 312 9 gusting 23 10.6
2016-Feb-10 01:00 308 9 gusting 23 10.6
2016-Feb-10 00:55 308 7 gusting 22 10.6
2016-Feb-10 00:50 316 7 gusting 22 10.6
2016-Feb-10 00:45 310 7 gusting 19 10.6
2016-Feb-10 00:40 290 14 gusting 19 10.6
2016-Feb-10 00:35 279 9 gusting 19 10.6
2016-Feb-10 00:30 268 9 gusting 19 10.6
2016-Feb-10 00:25 269 8 gusting 17 10.6
2016-Feb-10 00:20 281 13 gusting 17 10.6
2016-Feb-10 00:15 260 11 gusting 14 10.6
2016-Feb-10 00:10 258 9 gusting 14 10.6
2016-Feb-10 00:05 260 6 gusting 18 10.6
2016-Feb-10 00:00 273 9 gusting 20 10.6
2016-Feb-09 23:55 294 14 gusting 20 10.6
2016-Feb-09 23:50 285 12 gusting 29 10.6
2016-Feb-09 23:45 285 14 gusting 29 10.6
2016-Feb-09 23:40 288 11 gusting 24 10.6
2016-Feb-09 23:35 274 9 gusting 18 10.6
2016-Feb-09 23:30 267 9 gusting 19 10.6
2016-Feb-09 23:25 277 12 gusting 25 10.6
2016-Feb-09 23:20 284 12 gusting 25 10.6
2016-Feb-09 23:15 270 15 gusting 25 10.6
2016-Feb-09 23:10 253 10 gusting 21 10.6
2016-Feb-09 23:05 264 8 gusting 22 10.6
2016-Feb-09 23:00 292 8 gusting 22 10.6
2016-Feb-09 22:55 309 15 gusting 22 10.6
2016-Feb-09 22:40 285 14 gusting 27 10.6
2016-Feb-09 22:35 296 17 gusting 27 10.6
2016-Feb-09 22:30 306 21 gusting 26 10.6
2016-Feb-09 22:25 279 14 gusting 26 10.6
2016-Feb-09 22:20 269 13 gusting 28 10.6
2016-Feb-09 22:15 295 18 gusting 28 10.6
2016-Feb-09 22:10 305 13 gusting 24 10.6
2016-Feb-09 22:05 286 15 gusting 26 10.6
2016-Feb-09 22:00 276 16 gusting 27 10.6
2016-Feb-09 21:55 266 19 gusting 27 10.6
2016-Feb-09 21:50 274 16 gusting 27 10.6
2016-Feb-09 21:45 311 15 gusting 28 10.6
2016-Feb-09 21:40 314 15 gusting 28 10.6
2016-Feb-09 21:35 304 17 gusting 30 10.6
2016-Feb-09 21:30 305 14 gusting 30 10.6
2016-Feb-09 21:25 312 17 gusting 33 10.6
2016-Feb-09 21:20 281 16 gusting 33 10.6
2016-Feb-09 21:15 279 16 gusting 27 10.6
2016-Feb-09 21:10 311 19 gusting 27 10.6
2016-Feb-09 21:05 296 14 gusting 25 10.6
2016-Feb-09 21:00 267 14 gusting 27 10.6
2016-Feb-09 20:55 279 19 gusting 27 10.6
2016-Feb-09 20:50 291 13 gusting 30 10.6
2016-Feb-09 20:45 293 14 gusting 30 10.6
2016-Feb-09 20:40 298 21 gusting 32 10.6
2016-Feb-09 20:35 270 18 gusting 32 10.6
2016-Feb-09 20:30 253 22 gusting 32 10.6
2016-Feb-09 20:25 282 14 gusting 29 10.6
2016-Feb-09 20:20 310 16 gusting 31 10.6
2016-Feb-09 20:15 278 19 gusting 31 10.6
2016-Feb-09 20:10 267 24 gusting 31 10.6
2016-Feb-09 20:05 293 15 gusting 29 10.6
2016-Feb-09 20:00 288 15 gusting 29 10.6
2016-Feb-09 19:55 280 18 gusting 32 10.6
2016-Feb-09 19:50 287 17 gusting 32 10.6
2016-Feb-09 19:45 285 16 gusting 29 10.6
2016-Feb-09 19:40 297 14 gusting 24 10.6
2016-Feb-09 19:35 290 13 gusting 27 11.1
2016-Feb-09 19:30 269 18 gusting 27 11.1
2016-Feb-09 19:25 289 19 gusting 31 11.1
2016-Feb-09 19:20 308 16 gusting 31 11.1
2016-Feb-09 19:10 307 16 gusting 26 11.1
2016-Feb-09 19:05 301 19 gusting 27 11.1
2016-Feb-09 19:00 265 19 gusting 27 11.1
2016-Feb-09 18:55 245 20 gusting 26 11.1
2016-Feb-09 18:50 269 18 gusting 26 11.1
2016-Feb-09 18:45 291 17 gusting 29 11.1
2016-Feb-09 18:40 297 18 gusting 29 11.1
2016-Feb-09 18:35 301 20 gusting 36 11.1
2016-Feb-09 18:30 310 16 gusting 36 11.1
2016-Feb-09 18:25 317 26 gusting 36 10.6
2016-Feb-09 18:20 300 18 gusting 34 10.6
2016-Feb-09 18:15 295 26 gusting 34 10.6
2016-Feb-09 17:55 289 23 gusting 36 11.1
2016-Feb-09 16:55 274 18 gusting 31 11.1
2016-Feb-09 16:35 307 20 gusting 38 11.1
2016-Feb-09 16:30 304 19 gusting 38 11.1
2016-Feb-09 16:25 288 27 gusting 38 11.1
2016-Feb-09 16:20 264 27 gusting 38 11.1
2016-Feb-09 16:15 279 19 gusting 38 11.7
2016-Feb-09 16:10 293 23 gusting 37 11.7
2016-Feb-09 16:05 268 25 gusting 37 11.7
2016-Feb-09 16:00 259 24 gusting 34 11.7
2016-Feb-09 15:55 267 23 gusting 37 11.7
2016-Feb-09 15:50 295 24 gusting 37 11.7
2016-Feb-09 15:45 302 19 gusting 36 11.7
2016-Feb-09 15:40 281 19 gusting 36 11.7
2016-Feb-09 15:35 290 20 gusting 32 11.1
2016-Feb-09 15:30 292 18 gusting 32 11.1
2016-Feb-09 15:25 293 19 gusting 35 11.1
2016-Feb-09 15:20 290 25 gusting 39 11.1
2016-Feb-09 15:15 284 26 gusting 39 11.1
2016-Feb-09 15:10 273 23 gusting 38 11.1
2016-Feb-09 15:05 253 23 gusting 38 11.1
2016-Feb-09 15:00 266 26 gusting 40 11.1
2016-Feb-09 14:55 287 23 gusting 40 11.1
2016-Feb-09 14:50 264 29 gusting 46 11.1
2016-Feb-09 14:45 269 28 gusting 46 11.1
2016-Feb-09 14:40 303 27 gusting 45 11.1
2016-Feb-09 14:35 296 19 gusting 45 11.1
2016-Feb-09 14:30 284 30 gusting 45 11.1
2016-Feb-09 14:25 296 21 gusting 34 11.1
2016-Feb-09 14:20 303 21 gusting 34 11.1
2016-Feb-09 14:15 307 22 gusting 34 11.1
2016-Feb-09 14:10 291 19 gusting 33 11.1
2016-Feb-09 14:05 300 21 gusting 39 11.7
2016-Feb-09 14:00 315 20 gusting 39 11.7
2016-Feb-09 13:55 306 31 gusting 40 11.7
2016-Feb-09 13:50 277 19 gusting 40 11.7
2016-Feb-09 13:45 265 34 gusting 40 11.7
2016-Feb-09 13:40 271 19 gusting 37 11.7
2016-Feb-09 13:35 276 14 gusting 39 11.7
2016-Feb-09 13:30 293 26 gusting 39 11.7
2016-Feb-09 13:25 301 14 gusting 34 11.7
2016-Feb-09 13:20 300 22 gusting 44 11.7
2016-Feb-09 13:15 301 18 gusting 44 11.1
2016-Feb-09 13:10 295 26 gusting 31 11.7
2016-Feb-09 13:05 302 20 gusting 38 11.7
2016-Feb-09 13:00 307 19 gusting 38 11.1
2016-Feb-09 12:55 295 30 gusting 38 11.1
2016-Feb-09 12:50 296 21 gusting 34 11.1
2016-Feb-09 12:45 298 21 gusting 39 11.1
2016-Feb-09 12:40 295 21 gusting 39 11.1
2016-Feb-09 12:35 274 19 gusting 32 11.1
2016-Feb-09 12:30 283 21 gusting 36 11.1
2016-Feb-09 12:25 294 22 gusting 36 11.1
2016-Feb-09 12:20 271 22 gusting 36 11.1
2016-Feb-09 12:15 292 19 gusting 31 11.1
2016-Feb-09 12:10 300 16 gusting 31 11.1
2016-Feb-09 12:05 291 26 gusting 32 10.6
2016-Feb-09 12:00 295 15 gusting 34 11.1
2016-Feb-09 11:55 283 19 gusting 34 10.6
2016-Feb-09 11:50 247 19 gusting 34 10.6
2016-Feb-09 11:45 256 23 gusting 38 11.1
2016-Feb-09 11:40 276 17 gusting 38 11.1
2016-Feb-09 11:35 279 22 gusting 35 10.6
2016-Feb-09 11:30 271 25 gusting 31 10.6
2016-Feb-09 11:25 263 16 gusting 25 10.6
2016-Feb-09 11:20 272 16 gusting 35 10.6
2016-Feb-09 11:15 291 15 gusting 35 10.0
2016-Feb-09 11:10 272 15 gusting 32 10.0
2016-Feb-09 11:05 245 25 gusting 32 10.0
2016-Feb-09 11:00 251 21 gusting 35 10.0
2016-Feb-09 10:55 258 18 gusting 36 10.0
2016-Feb-09 10:50 251 19 gusting 44 10.0
2016-Feb-09 10:45 278 19 gusting 44 10.0
2016-Feb-09 10:40 296 13 gusting 31 9.4
2016-Feb-09 10:35 304 21 gusting 31 10.0
2016-Feb-09 10:30 297 23 gusting 33 10.0
2016-Feb-09 10:25 266 19 gusting 33 10.0
2016-Feb-09 10:20 294 13 gusting 31 10.0
2016-Feb-09 10:15 294 15 gusting 31 10.0
2016-Feb-09 10:10 255 17 gusting 31 10.0
2016-Feb-09 10:05 261 19 gusting 29 9.4
2016-Feb-09 10:00 274 18 gusting 29 9.4
2016-Feb-09 09:55 275 21 gusting 29 9.4
2016-Feb-09 09:50 270 19 gusting 37 9.4
2016-Feb-09 09:45 266 23 gusting 37 9.4
2016-Feb-09 09:40 267 15 gusting 37 9.4
2016-Feb-09 09:35 278 18 gusting 37 9.4
2016-Feb-09 09:30 279 19 gusting 34 8.9
2016-Feb-09 09:25 270 18 gusting 34 8.9
2016-Feb-09 09:20 286 13 gusting 32 8.9
2016-Feb-09 09:15 282 22 gusting 32 8.3
2016-Feb-09 09:10 269 18 gusting 28 8.3
2016-Feb-09 09:05 274 17 gusting 28 8.3
2016-Feb-09 09:00 274 13 gusting 27 8.3
2016-Feb-09 08:55 278 13 gusting 27 8.3
2016-Feb-09 08:50 270 22 gusting 28 8.3
2016-Feb-09 08:45 268 15 gusting 28 8.3
2016-Feb-09 08:40 272 20 gusting 28 8.3
2016-Feb-09 08:35 283 19 gusting 29 8.3
2016-Feb-09 08:30 281 19 gusting 29 8.3
2016-Feb-09 08:25 274 13 gusting 31 8.3
2016-Feb-09 08:20 262 21 gusting 31 8.3
2016-Feb-09 08:15 254 14 gusting 29 8.3
2016-Feb-09 08:10 307 18 gusting 26 8.3
2016-Feb-09 08:05 306 16 gusting 26 8.3
2016-Feb-09 08:00 255 14 gusting 26 8.3
2016-Feb-09 07:55 248 11 gusting 19 8.3
2016-Feb-09 07:50 270 14 gusting 19 8.3
2016-Feb-09 07:45 271 11 gusting 23 8.3
2016-Feb-09 07:40 267 13 gusting 23 8.3
2016-Feb-09 07:35 252 17 gusting 24 8.3
2016-Feb-09 07:30 254 17 gusting 26 8.3
2016-Feb-09 07:25 270 13 gusting 26 8.3
2016-Feb-09 07:20 260 14 gusting 31 8.3
2016-Feb-09 07:15 253 18 gusting 31 8.3
2016-Feb-09 07:10 277 18 gusting 31 8.3
2016-Feb-09 07:05 294 23 gusting 29 8.3
2016-Feb-09 07:00 278 19 gusting 29 8.3
2016-Feb-09 06:55 256 15 gusting 30 8.3
2016-Feb-09 06:50 270 14 gusting 31 8.3
2016-Feb-09 06:45 284 17 gusting 31 8.3
2016-Feb-09 06:40 282 17 gusting 26 8.3
2016-Feb-09 06:35 279 14 gusting 27 8.3
2016-Feb-09 06:30 270 18 gusting 31 8.3
2016-Feb-09 06:25 266 18 gusting 31 8.3
2016-Feb-09 06:20 259 14 gusting 23 8.3
2016-Feb-09 06:15 262 15 gusting 23 8.3
2016-Feb-09 06:10 262 17 gusting 23 8.3
2016-Feb-09 06:05 252 14 gusting 22 8.3
2016-Feb-09 06:00 245 13 gusting 22 8.3
2016-Feb-09 05:55 242 14 gusting 19 8.3
2016-Feb-09 05:50 252 13 gusting 18 8.3
2016-Feb-09 05:45 258 12 gusting 18 8.3
2016-Feb-09 05:40 255 13 gusting 19 8.3
2016-Feb-09 05:35 243 11 gusting 21 8.3
2016-Feb-09 05:30 230 14 gusting 21 8.3
2016-Feb-09 05:25 232 17 gusting 20 8.3
2016-Feb-09 05:20 245 10 gusting 19 8.3
2016-Feb-09 05:15 251 13 gusting 21 8.3
2016-Feb-09 05:10 253 14 gusting 21 8.3
2016-Feb-09 05:05 246 13 gusting 19 8.3
2016-Feb-09 05:00 236 9 gusting 19 8.3
2016-Feb-09 04:55 231 12 gusting 21 8.3
2016-Feb-09 04:50 232 11 gusting 21 8.3
2016-Feb-09 04:45 253 13 gusting 18 8.3
2016-Feb-09 04:40 272 13 gusting 16 8.3
2016-Feb-09 04:35 270 8 gusting 16 8.3
2016-Feb-09 04:30 265 13 gusting 16 8.3
2016-Feb-09 04:25 264 8 gusting 15 8.3
2016-Feb-09 04:20 281 13 gusting 15 8.3
2016-Feb-09 04:15 289 9 gusting 16 8.3
2016-Feb-09 04:10 283 9 gusting 20 8.3
2016-Feb-09 04:05 271 13 gusting 22 8.3
2016-Feb-09 04:00 286 15 gusting 22 8.3
2016-Feb-09 03:55 278 13 gusting 23 8.3
2016-Feb-09 03:50 267 18 gusting 23 8.3
2016-Feb-09 03:45 293 14 gusting 26 8.9
2016-Feb-09 03:40 290 13 gusting 26 8.9
2016-Feb-09 03:35 274 13 gusting 19 8.3
2016-Feb-09 03:30 286 13 gusting 19 8.9
2016-Feb-09 03:25 286 10 gusting 19 8.9
2016-Feb-09 03:20 283 12 gusting 19 8.9
2016-Feb-09 03:15 266 13 gusting 19 8.9
2016-Feb-09 03:10 235 15 gusting 19 8.9
2016-Feb-09 03:05 253 10 gusting 16 8.9
2016-Feb-09 03:00 286 10 gusting 19 8.9
2016-Feb-09 02:55 280 12 gusting 19 8.9
2016-Feb-09 02:50 284 16 gusting 19 8.9
2016-Feb-09 02:45 297 12 gusting 19 8.9
2016-Feb-09 02:40 297 13 gusting 20 8.9
2016-Feb-09 02:35 289 13 gusting 20 8.9
2016-Feb-09 02:30 279 12 gusting 24 8.9
2016-Feb-09 02:25 292 14 gusting 24 8.9
2016-Feb-09 02:20 290 16 gusting 24 8.9
2016-Feb-09 02:15 284 14 gusting 22 8.9
2016-Feb-09 02:10 283 14 gusting 22 8.9
2016-Feb-09 02:05 280 16 gusting 26 8.9
2016-Feb-09 02:00 270 13 gusting 26 8.9
2016-Feb-09 01:55 276 10 gusting 22 8.9
2016-Feb-09 01:50 293 14 gusting 22 8.9
2016-Feb-09 01:45 272 13 gusting 19 8.9
2016-Feb-09 01:40 256 14 gusting 19 8.9
2016-Feb-09 01:35 279 13 gusting 19 8.9
2016-Feb-09 01:30 290 18 gusting 22 8.9
2016-Feb-09 01:25 285 13 gusting 22 8.9
2016-Feb-09 01:20 271 10 gusting 18 8.9
2016-Feb-09 01:15 270 14 gusting 18 8.9
2016-Feb-09 01:10 300 11 gusting 16 8.9
2016-Feb-09 01:05 314 11 gusting 15 8.9
2016-Feb-09 01:00 308 11 gusting 19 8.9
2016-Feb-09 00:55 289 11 gusting 19 8.9
2016-Feb-09 00:50 254 17 gusting 19 8.9
2016-Feb-09 00:45 239 11 gusting 18 8.9
2016-Feb-09 00:40 261 7 gusting 16 8.9
2016-Feb-09 00:35 266 13 gusting 15 8.9
2016-Feb-09 00:30 249 7 gusting 19 8.9
2016-Feb-09 00:25 237 12 gusting 19 8.9
2016-Feb-09 00:20 233 13 gusting 19 8.9
2016-Feb-09 00:15 235 13 gusting 18 8.9
2016-Feb-09 00:10 238 9 gusting 19 8.9
2016-Feb-09 00:05 267 12 gusting 19 8.9
2016-Feb-09 00:00 262 10 gusting 22 8.9
2016-Feb-08 23:55 240 11 gusting 22 8.9
2016-Feb-08 23:50 253 15 gusting 19 8.9
2016-Feb-08 23:45 286 15 gusting 19 8.9
2016-Feb-08 23:40 284 14 gusting 19 8.9
2016-Feb-08 23:35 248 14 gusting 19 8.9
2016-Feb-08 23:30 237 14 gusting 22 8.9
2016-Feb-08 23:25 262 12 gusting 22 8.9
2016-Feb-08 23:20 277 13 gusting 24 8.9
2016-Feb-08 23:15 259 12 gusting 24 8.9
2016-Feb-08 23:10 289 14 gusting 18 8.9
2016-Feb-08 23:05 306 14 gusting 19 8.9
2016-Feb-08 23:00 263 14 gusting 19 8.9
2016-Feb-08 22:55 258 14 gusting 19 8.9
2016-Feb-08 22:50 284 14 gusting 19 8.9
2016-Feb-08 22:45 307 13 gusting 19 8.9
2016-Feb-08 22:40 296 13 gusting 19 8.9
2016-Feb-08 22:35 247 14 gusting 19 8.9
2016-Feb-08 22:30 262 13 gusting 23 8.9
2016-Feb-08 22:25 276 14 gusting 23 8.9
2016-Feb-08 22:20 253 18 gusting 21 8.9
2016-Feb-08 22:15 244 13 gusting 24 8.9
2016-Feb-08 22:10 251 13 gusting 24 8.9
2016-Feb-08 22:05 252 14 gusting 24 8.9
2016-Feb-08 22:00 274 16 gusting 22 8.9
2016-Feb-08 21:55 298 12 gusting 19 8.9
2016-Feb-08 21:50 257 13 gusting 23 8.9
2016-Feb-08 21:45 246 15 gusting 23 8.9
2016-Feb-08 21:40 249 13 gusting 21 8.9
2016-Feb-08 21:35 239 14 gusting 19 8.9
2016-Feb-08 21:30 262 12 gusting 21 8.9
2016-Feb-08 21:25 278 10 gusting 21 8.9
2016-Feb-08 21:20 256 16 gusting 20 8.9
2016-Feb-08 21:15 237 11 gusting 18 8.9
2016-Feb-08 21:10 227 10 gusting 18 8.9
2016-Feb-08 21:05 247 14 gusting 19 8.9
2016-Feb-08 21:00 260 14 gusting 23 8.9
2016-Feb-08 20:55 256 14 gusting 23 8.9
2016-Feb-08 20:50 261 13 gusting 23 8.9
2016-Feb-08 20:45 250 13 gusting 23 8.9
2016-Feb-08 20:40 242 13 gusting 23 8.9
2016-Feb-08 20:35 235 14 gusting 20 8.9
2016-Feb-08 20:30 243 11 gusting 20 8.9
2016-Feb-08 20:25 266 8 gusting 20 8.9
2016-Feb-08 20:20 265 11 gusting 18 8.9
2016-Feb-08 20:15 244 13 gusting 18 8.9
2016-Feb-08 20:10 238 12 gusting 17 8.9
2016-Feb-08 20:05 237 13 gusting 14 8.9
2016-Feb-08 20:00 241 11 gusting 14 8.9
2016-Feb-08 19:55 249 7 gusting 10 8.9
2016-Feb-08 19:50 240 1 gusting 11 8.9
2016-Feb-08 19:45 263 3 gusting 11 8.9
2016-Feb-08 19:40 266 7 gusting 14 8.9
2016-Feb-08 19:35 260 6 gusting 14 8.9
2016-Feb-08 19:30 269 6 gusting 13 8.9
2016-Feb-08 19:25 276 6 gusting 14 8.9
2016-Feb-08 19:20 282 9 gusting 18 8.9
2016-Feb-08 19:15 304 11 gusting 18 8.9
2016-Feb-08 19:10 314 12 gusting 15 8.9
2016-Feb-08 19:05 303 12 gusting 18 8.9
2016-Feb-08 19:00 282 12 gusting 21 8.9
2016-Feb-08 18:55 293 13 gusting 21 8.9
2016-Feb-08 18:50 286 14 gusting 19 8.9
2016-Feb-08 18:45 273 16 gusting 19 8.9
2016-Feb-08 18:40 285 13 gusting 16 8.9
2016-Feb-08 18:35 293 9 gusting 20 8.9
2016-Feb-08 18:30 313 13 gusting 20 8.9
2016-Feb-08 18:25 305 14 gusting 20 8.9
2016-Feb-08 18:20 283 11 gusting 18 8.9
2016-Feb-08 18:15 279 12 gusting 18 8.9
2016-Feb-08 18:10 275 9 gusting 19 8.9
2016-Feb-08 18:05 285 13 gusting 19 8.9
2016-Feb-08 18:00 275 14 gusting 19 8.9
2016-Feb-08 17:55 287 14 gusting 19 8.9
2016-Feb-08 17:50 288 13 gusting 21 8.9
2016-Feb-08 17:45 279 11 gusting 21 9.4
2016-Feb-08 17:40 301 9 gusting 16 9.4
2016-Feb-08 17:35 277 10 gusting 21 9.4
2016-Feb-08 17:30 273 13 gusting 24 9.4
2016-Feb-08 17:25 293 13 gusting 24 9.4
2016-Feb-08 17:20 294 15 gusting 22 9.4
2016-Feb-08 17:15 280 11 gusting 19 9.4
2016-Feb-08 17:10 271 13 gusting 24 9.4
2016-Feb-08 17:05 270 13 gusting 24 9.4
2016-Feb-08 17:00 286 11 gusting 21 9.4
2016-Feb-08 16:55 296 13 gusting 22 9.4
2016-Feb-08 16:50 297 15 gusting 22 9.4
2016-Feb-08 16:45 295 16 gusting 22 9.4
2016-Feb-08 16:40 284 13 gusting 21 9.4
2016-Feb-08 16:35 279 14 gusting 19 9.4
2016-Feb-08 16:30 255 10 gusting 19 9.4
2016-Feb-08 16:25 271 12 gusting 22 9.4
2016-Feb-08 16:20 280 17 gusting 22 9.4
2016-Feb-08 16:15 238 13 gusting 25 9.4
2016-Feb-08 16:10 255 16 gusting 25 9.4
2016-Feb-08 16:05 274 13 gusting 19 9.4
2016-Feb-08 16:00 272 13 gusting 19 9.4
2016-Feb-08 15:55 259 10 gusting 20 9.4
2016-Feb-08 15:50 260 9 gusting 20 9.4
2016-Feb-08 15:45 258 13 gusting 19 9.4
2016-Feb-08 15:40 245 14 gusting 19 9.4
2016-Feb-08 15:35 236 13 gusting 19 9.4
2016-Feb-08 15:30 236 15 gusting 20 9.4
2016-Feb-08 15:25 258 14 gusting 22 10.0
2016-Feb-08 15:20 260 17 gusting 25 10.0
2016-Feb-08 15:15 270 16 gusting 25 10.0
2016-Feb-08 15:10 282 13 gusting 19 10.0
2016-Feb-08 15:05 263 14 gusting 19 10.0
2016-Feb-08 15:00 248 13 gusting 23 10.0
2016-Feb-08 14:55 240 14 gusting 24 10.0
2016-Feb-08 14:50 246 14 gusting 24 10.0
2016-Feb-08 14:45 275 14 gusting 21 10.0
2016-Feb-08 14:40 309 17 gusting 21 10.0
2016-Feb-08 14:35 289 18 gusting 25 10.0
2016-Feb-08 14:30 249 19 gusting 26 10.0
2016-Feb-08 14:25 259 20 gusting 26 10.0
2016-Feb-08 14:20 285 16 gusting 26 10.6
2016-Feb-08 14:15 274 17 gusting 27 10.6
2016-Feb-08 14:10 276 17 gusting 27 10.6
2016-Feb-08 14:05 289 16 gusting 28 10.6
2016-Feb-08 14:00 264 19 gusting 29 10.6
2016-Feb-08 13:55 242 19 gusting 31 10.6
2016-Feb-08 13:50 249 26 gusting 31 10.6
2016-Feb-08 13:45 290 19 gusting 26 11.7
2016-Feb-08 13:40 280 9 gusting 21 11.7
2016-Feb-08 13:35 268 13 gusting 21 11.7
2016-Feb-08 13:30 263 19 gusting 21 11.7
2016-Feb-08 13:25 276 16 gusting 26 11.7
2016-Feb-08 13:20 260 16 gusting 26 11.7
2016-Feb-08 13:15 227 18 gusting 24 11.7
2016-Feb-08 13:10 230 18 gusting 24 11.7
2016-Feb-08 13:05 230 18 gusting 19 11.7
2016-Feb-08 13:00 236 14 gusting 19 11.7
2016-Feb-08 12:55 242 11 gusting 19 11.7
2016-Feb-08 12:50 241 12 gusting 19 11.7
2016-Feb-08 12:45 250 13 gusting 17 11.7
2016-Feb-08 12:40 247 11 gusting 19 11.7
2016-Feb-08 12:35 266 10 gusting 19 11.1
2016-Feb-08 12:30 255 14 gusting 18 11.1
2016-Feb-08 12:25 236 12 gusting 17 10.6
2016-Feb-08 12:20 234 13 gusting 17 10.6
2016-Feb-08 12:15 228 10 gusting 18 10.6
2016-Feb-08 12:10 249 14 gusting 19 10.6
2016-Feb-08 12:05 254 13 gusting 23 11.1
2016-Feb-08 12:00 242 11 gusting 23 10.6
2016-Feb-08 11:55 249 15 gusting 23 11.1
2016-Feb-08 11:50 262 17 gusting 23 10.6
2016-Feb-08 11:45 249 18 gusting 21 10.6
2016-Feb-08 11:40 238 18 gusting 21 10.6
2016-Feb-08 11:35 252 15 gusting 19 10.6
2016-Feb-08 11:30 258 12 gusting 18 10.6
2016-Feb-08 11:25 256 11 gusting 19 10.6
2016-Feb-08 11:20 258 13 gusting 20 10.6
2016-Feb-08 11:15 252 12 gusting 20 10.6
2016-Feb-08 11:10 259 17 gusting 19 10.6
2016-Feb-08 11:05 301 7 gusting 15 10.6
2016-Feb-08 11:00 287 13 gusting 15 10.0
2016-Feb-08 10:55 252 13 gusting 15 10.0
2016-Feb-08 10:50 225 8 gusting 11 10.0
2016-Feb-08 10:10 275 10 gusting 20 8.3
2016-Feb-08 10:05 288 12 gusting 20 8.9
2016-Feb-08 10:00 248 14 gusting 18 9.4